• In Czech Republic
  • List of Countries
  • For 7 days
  • Water Temperature
  • Satellite Maps
  • Weather Map
  • Weather Widgets
  • user-avatar
    Login

    Hourly Weather Sessa Aurunca

    Today, 16 January, Tuesday

    Time Temperature Precipitation Wind Pressure Humidity
    00:00 +7°C° 0.2 mm 2 mps 748 mmHg 93%
    01:00 +6°C° 0 mm 2 mps 748 mmHg 94%
    02:00 +7°C° 0.1 mm 2 mps 747 mmHg 94%
    03:00 +7°C° 0.1 mm 2 mps 747 mmHg 94%
    04:00 +7°C° 0.1 mm 3 mps 747 mmHg 94%
    05:00 +7°C° 0.2 mm 3 mps 746 mmHg 94%
    06:00 +6°C° 0.2 mm 4 mps 746 mmHg 94%
    07:00 +6°C° 0 mm 4 mps 745 mmHg 94%
    08:00 +7°C° 0.2 mm 5 mps 745 mmHg 92%
    09:00 +7°C° 0.2 mm 5 mps 745 mmHg 91%
    10:00 +8°C° 0.2 mm 6 mps 745 mmHg 90%
    11:00 +8°C° 0.2 mm 6 mps 745 mmHg 89%
    12:00 +9°C° 0.2 mm 6 mps 744 mmHg 89%
    13:00 +9°C° 0 mm 7 mps 744 mmHg 89%
    14:00 +9°C° 0.1 mm 6 mps 743 mmHg 89%
    15:00 +9°C° 0.1 mm 6 mps 743 mmHg 90%
    16:00 +9°C° 0.1 mm 6 mps 743 mmHg 90%
    17:00 +9°C° 0.1 mm 6 mps 742 mmHg 91%
    18:00 +9°C° 0.1 mm 6 mps 742 mmHg 91%
    19:00 +9°C° 0.1 mm 5 mps 742 mmHg 92%
    20:00 +9°C° 0.1 mm 6 mps 742 mmHg 92%
    21:00 +10°C° 0.1 mm 6 mps 742 mmHg 93%
    22:00 +10°C° 0.1 mm 6 mps 742 mmHg 93%
    23:00 +10°C° 0.1 mm 6 mps 741 mmHg 93%

    Tomorrow, 17 January, Wednesday

    Time Temperature Precipitation Wind Pressure Humidity
    00:00 +10°C° 0.1 mm 6 mps 741 mmHg 94%
    01:00 +10°C° 0.1 mm 7 mps 740 mmHg 94%
    02:00 +10°C° 0.1 mm 7 mps 740 mmHg 93%
    03:00 +10°C° 0.1 mm 7 mps 739 mmHg 93%
    04:00 +10°C° 0.1 mm 8 mps 739 mmHg 92%
    05:00 +10°C° 0 mm 8 mps 738 mmHg 92%
    06:00 +10°C° 0 mm 8 mps 738 mmHg 91%
    07:00 +10°C° 0 mm 9 mps 738 mmHg 90%
    08:00 +11°C° 0 mm 10 mps 738 mmHg 86%
    09:00 +12°C° 0 mm 11 mps 738 mmHg 81%
    10:00 +12°C° 0 mm 12 mps 738 mmHg 77%
    11:00 +12°C° 0.1 mm 12 mps 737 mmHg 72%
    12:00 +12°C° 0.1 mm 12 mps 737 mmHg 66%
    13:00 +12°C° 0.1 mm 12 mps 737 mmHg 61%
    14:00 +11°C° 0 mm 11 mps 737 mmHg 60%
    15:00 +11°C° 0 mm 10 mps 737 mmHg 59%
    16:00 +10°C° 0 mm 9 mps 738 mmHg 59%
    17:00 +9°C° 0 mm 8 mps 739 mmHg 55%
    18:00 +6°C° 0 mm 8 mps 740 mmHg 52%
    19:00 +5°C° 0 mm 7 mps 741 mmHg 48%
    20:00 +4°C° 0 mm 7 mps 742 mmHg 48%
    21:00 +3°C° 0 mm 6 mps 743 mmHg 47%
    22:00 +3°C° 0 mm 6 mps 744 mmHg 46%
    23:00 +2°C° 0 mm 5 mps 745 mmHg 46%

    Day after tomorrow, 18 January, Thursday

    Time Temperature Precipitation Wind Pressure Humidity
    00:00 +2°C° 0 mm 5 mps 745 mmHg 47%
    01:00 +3°C° 0 mm 4 mps 746 mmHg 47%
    02:00 +3°C° 0 mm 3 mps 746 mmHg 46%
    03:00 +2°C° 0 mm 3 mps 747 mmHg 44%
    04:00 +2°C° 0 mm 3 mps 747 mmHg 43%
    05:00 +3°C° 0 mm 2 mps 747 mmHg 42%
    06:00 +3°C° 0 mm 2 mps 748 mmHg 42%
    07:00 +3°C° 0 mm 2 mps 748 mmHg 41%
    08:00 +5°C° 0 mm 2 mps 749 mmHg 38%
    09:00 +7°C° 0 mm 1 mps 749 mmHg 35%
    10:00 +9°C° 0 mm 1 mps 749 mmHg 32%
    11:00 +9°C° 0 mm 2 mps 749 mmHg 32%
    12:00 +10°C° 0 mm 2 mps 748 mmHg 31%
    13:00 +10°C° 0 mm 3 mps 748 mmHg 30%
    14:00 +10°C° 0 mm 3 mps 747 mmHg 39%
    15:00 +10°C° 0 mm 4 mps 747 mmHg 48%
    16:00 +8°C° 0 mm 4 mps 747 mmHg 57%
    17:00 +8°C° 0.1 mm 4 mps 747 mmHg 66%
    18:00 +7°C° 0.1 mm 4 mps 747 mmHg 75%
    19:00 +7°C° 0.1 mm 5 mps 746 mmHg 84%
    20:00 +7°C° 0.1 mm 5 mps 746 mmHg 86%
    21:00 +7°C° 0.1 mm 5 mps 746 mmHg 88%
    22:00 +7°C° 0.1 mm 5 mps 746 mmHg 90%
    23:00 +8°C° 0.1 mm 5 mps 746 mmHg 91%

    19 January, Friday

    Time Temperature Precipitation Wind Pressure Humidity
    00:00 +8°C° 0.1 mm 5 mps 746 mmHg 92%
    01:00 +8°C° 0.1 mm 5 mps 745 mmHg 92%
    02:00 +8°C° 0.1 mm 5 mps 745 mmHg 92%
    03:00 +8°C° 0.1 mm 5 mps 744 mmHg 92%
    04:00 +8°C° 0.1 mm 5 mps 744 mmHg 92%
    05:00 +8°C° 0.1 mm 4 mps 744 mmHg 92%
    06:00 +8°C° 0.1 mm 4 mps 744 mmHg 92%
    07:00 +8°C° 0.1 mm 4 mps 743 mmHg 91%
    08:00 +10°C° 0.1 mm 4 mps 743 mmHg 90%
    09:00 +10°C° 0.1 mm 4 mps 743 mmHg 88%
    10:00 +10°C° 0.1 mm 5 mps 743 mmHg 86%
    11:00 +10°C° 0.1 mm 5 mps 743 mmHg 84%
    12:00 +10°C° 0.1 mm 5 mps 742 mmHg 82%
    13:00 +12°C° 0.1 mm 5 mps 742 mmHg 80%
    14:00 +12°C° 0.1 mm 5 mps 741 mmHg 82%
    15:00 +10°C° 0.1 mm 5 mps 741 mmHg 84%
    16:00 +11°C° 0.1 mm 4 mps 741 mmHg 86%
    17:00 +10°C° 0 mm 4 mps 741 mmHg 88%
    18:00 +10°C° 0 mm 4 mps 741 mmHg 90%
    19:00 +10°C° 0 mm 4 mps 741 mmHg 92%
    20:00 +10°C° 0.1 mm 4 mps 740 mmHg 93%
    21:00 +10°C° 0.1 mm 4 mps 740 mmHg 93%
    22:00 +10°C° 0.1 mm 4 mps 740 mmHg 93%
    23:00 +9°C° 0.5 mm 5 mps 740 mmHg 93%

    20 January, Saturday

    Time Temperature Precipitation Wind Pressure Humidity
    00:00 +9°C° 0.5 mm 5 mps 740 mmHg 94%
    01:00 +9°C° 0.5 mm 5 mps 739 mmHg 94%
    02:00 +9°C° 0.6 mm 6 mps 739 mmHg 94%
    03:00 +8°C° 0.6 mm 6 mps 738 mmHg 93%
    04:00 +8°C° 0.6 mm 6 mps 738 mmHg 93%
    05:00 +8°C° 0.4 mm 6 mps 738 mmHg 91%
    06:00 +8°C° 0.4 mm 6 mps 738 mmHg 90%
    07:00 +7°C° 0.4 mm 6 mps 737 mmHg 88%
    08:00 +8°C° 0.2 mm 7 mps 737 mmHg 81%
    09:00 +8°C° 0.2 mm 7 mps 737 mmHg 74%
    10:00 +7°C° 0.2 mm 8 mps 737 mmHg 67%
    11:00 +7°C° 0.1 mm 8 mps 736 mmHg 64%
    12:00 +7°C° 0.1 mm 9 mps 736 mmHg 60%
    13:00 +7°C° 0.1 mm 10 mps 736 mmHg 57%
    14:00 +7°C° 0.3 mm 9 mps 735 mmHg 59%
    15:00 +6°C° 0.3 mm 8 mps 735 mmHg 60%
    16:00 +5°C° 0.3 mm 7 mps 735 mmHg 62%
    17:00 +4°C° 0.1 mm 6 mps 735 mmHg 65%
    18:00 +5°C° 0.1 mm 5 mps 735 mmHg 69%
    19:00 +3°C° 0.1 mm 5 mps 735 mmHg 73%
    20:00 +2°C° 0 mm 5 mps 735 mmHg 74%
    21:00 +2°C° 0 mm 5 mps 736 mmHg 74%
    22:00 +3°C° 0 mm 4 mps 736 mmHg 75%
    23:00 +3°C° 0 mm 4 mps 736 mmHg 75%

    21 January, Sunday

    Time Temperature Precipitation Wind Pressure Humidity
    00:00 +1°C° 0 mm 4 mps 736 mmHg 75%
    01:00 +1°C° 0 mm 4 mps 736 mmHg 76%
    02:00 +1°C° 0.1 mm 4 mps 736 mmHg 76%
    03:00 +1°C° 0.1 mm 4 mps 737 mmHg 76%
    04:00 +1°C° 0.1 mm 4 mps 737 mmHg 76%
    05:00 +1°C° 0 mm 4 mps 737 mmHg 75%
    06:00 0°C° 0 mm 4 mps 738 mmHg 75%
    07:00 0°C° 0 mm 4 mps 739 mmHg 75%
    08:00 +1°C° 0 mm 4 mps 739 mmHg 69%
    09:00 +3°C° 0 mm 4 mps 740 mmHg 63%
    10:00 +3°C° 0 mm 5 mps 741 mmHg 57%
    11:00 +5°C° 0 mm 5 mps 741 mmHg 53%
    12:00 +5°C° 0 mm 4 mps 741 mmHg 50%
    13:00 +6°C° 0 mm 4 mps 742 mmHg 47%
    14:00 +6°C° 0 mm 4 mps 742 mmHg 49%
    15:00 +5°C° 0 mm 3 mps 743 mmHg 52%
    16:00 +5°C° 0 mm 3 mps 743 mmHg 54%
    17:00 +4°C° 0 mm 3 mps 743 mmHg 57%
    18:00 +3°C° 0 mm 3 mps 744 mmHg 60%
    19:00 +1°C° 0 mm 3 mps 744 mmHg 63%
    20:00 +1°C° 0 mm 3 mps 745 mmHg 62%
    21:00 +1°C° 0 mm 3 mps 745 mmHg 61%
    22:00 +2°C° 0 mm 2 mps 746 mmHg 60%
    23:00 +2°C° 0 mm 2 mps 746 mmHg 58%
    Show more